KKS-1 (KISEKI)

Last updated on Sun Jul 26 2026 00:03:19 GMT+0000 (Coordinated Universal Time)

1 33499U 09002H 26206.57625511 .00001338 00000+0 17058-3 0 9995 2 33499 98.1168 129.6261 0008255 155.8153 204.3449 14.83210172941883
UTC large
Height (km)
Speed (km/s)
/
Latitude / Longitude
Inclination (degrees)
Orbital Period (minutes)
Azimuth
Elevation
Range (km)
Doppler Factor

Next 0 passes for location: London (51.5072 / 0.1276)

No passes found over London.
KKS-1 (KISEKI)